This demonstration page uses our WeatherBlox Daily Observations layout. Learn more.

Left ArrowRight Arrow

Hourly Observations for December 5, 2021

Temp ( °F °C ) Dew Point ( °F °C ) Humidity (%) Winds ( mph kmh ) Pressure ( in mb ) Visibility ( mi km ) Precip ( " mm )
12:15 am 00:15 Clear 28 -2 23 -5 80 80 NE 6 9 30.31 1027 10 16 N/A
12:35 am 00:35 Clear 28 -2 23 -5 80 80 NE 7 11 30.30 1026 10 16 N/A
12:55 am 00:55 Clear 28 -2 23 -5 80 80 NE 6 9 30.29 1026 10 16 N/A
1:15 am 01:15 Clear 28 -2 23 -5 80 80 NE 6 9 30.29 1026 10 16 N/A
1:35 am 01:35 Partly Cloudy 28 -2 21 -6 74 74 ENE 8 13 30.28 1025 10 16 N/A
1:55 am 01:55 Partly Cloudy 28 -2 23 -5 80 80 E 6 9 30.27 1025 10 16 N/A
2:15 am 02:15 Partly Cloudy 28 -2 21 -6 74 74 E 6 9 30.27 1025 10 16 N/A
2:35 am 02:35 Clear 28 -2 21 -6 74 74 ENE 5 7 30.27 1025 10 16 N/A
2:55 am 02:55 Clear 28 -2 21 -6 74 74 ENE 7 11 30.27 1025 10 16 N/A
3:15 am 03:15 Clear 28 -2 21 -6 74 74 ENE 7 11 30.26 1025 10 16 N/A
3:35 am 03:35 Clear 28 -2 23 -5 80 80 ENE 7 11 30.26 1025 10 16 N/A
3:55 am 03:55 Clear 28 -2 23 -5 80 80 ENE 8 13 30.26 1025 10 16 N/A
4:15 am 04:15 Clear 28 -2 23 -5 80 80 ENE 8 13 30.25 1024 10 16 N/A
4:35 am 04:35 Clear 28 -2 21 -6 74 74 ENE 9 15 30.25 1024 10 16 N/A
4:55 am 04:55 Clear 28 -2 21 -6 74 74 ENE 9 15 30.24 1024 10 16 N/A
5:15 am 05:15 Clear 30 -1 21 -6 69 69 E 10 17 30.24 1024 10 16 N/A
5:35 am 05:35 Clear 30 -1 21 -6 69 69 E 10 17 30.23 1024 10 16 N/A
5:55 am 05:55 Clear 28 -2 23 -5 80 80 E 9 15 30.22 1023 10 16 N/A
6:15 am 06:15 Clear 30 -1 21 -6 69 69 E 10 17 30.21 1023 10 16 N/A
6:35 am 06:35 Clear 30 -1 21 -6 69 69 E 10 17 30.21 1023 10 16 N/A
6:55 am 06:55 Clear 30 -1 21 -6 69 69 E 12 19 30.20 1023 10 16 N/A
7:15 am 07:15 Clear 32 undefined 21 -6 64 64 E 14 22 30.19 1022 10 16 N/A
7:35 am 07:35 Clear 32 undefined 21 -6 64 64 E 12 19 30.18 1022 10 16 N/A
7:55 am 07:55 Partly Cloudy 32 undefined 21 -6 64 64 ESE 12 19 30.18 1022 10 16 N/A
8:15 am 08:15 Cloudy 34 1 21 -6 60 60 ESE 10 17 30.16 1021 10 16 N/A
8:35 am 08:35 Cloudy 34 1 21 -6 60 60 ESE 13 20 30.15 1021 10 16 N/A
8:55 am 08:55 Cloudy 34 1 23 -5 65 65 ESE 13 20 30.14 1021 10 16 N/A
9:15 am 09:15 Cloudy 34 1 23 -5 65 65 ESE 12 19 30.13 1020 10 16 N/A
9:35 am 09:35 Mostly Cloudy 36 2 23 -5 60 60 ESE 14 22 30.11 1020 10 16 N/A
9:55 am 09:55 Mostly Cloudy 36 2 25 -4 65 65 ESE 14 22 30.10 1019 10 16 N/A
10:15 am 10:15 Cloudy 37 3 27 -3 65 65 SE 13 20 30.08 1019 10 16 N/A
10:35 am 10:35 Cloudy 39 4 27 -3 61 61 SE 18 30 30.06 1018 10 16 N/A
10:55 am 10:55 Cloudy 39 4 28 -2 65 65 SE 17 28 30.05 1018 10 16 N/A
11:15 am 11:15 Cloudy 39 4 28 -2 65 65 SE 13 20 30.03 1017 10 16 N/A
11:35 am 11:35 Cloudy 41 5 28 -2 61 61 SE 14 22 30.00 1016 10 16 N/A
11:55 am 11:55 Cloudy 41 5 30 -1 66 66 SSE 13 20 29.98 1015 10 16 N/A
12:15 pm 12:15 Cloudy 43 6 32 undefined 66 66 SSE 12 19 29.95 1014 10 16 N/A
12:35 pm 12:35 Cloudy 43 6 32 undefined 66 66 SSE 15 24 29.93 1014 10 16 N/A
12:55 pm 12:55 Cloudy 43 6 32 undefined 66 66 SSE 12 19 29.91 1013 10 16 N/A
1:15 pm 13:15 Cloudy 45 7 34 1 66 66 SSE 14 22 29.89 1012 10 16 N/A
1:35 pm 13:35 Cloudy 45 7 37 3 76 76 SSE 13 20 29.87 1012 10 16 N/A
1:55 pm 13:55 Cloudy 45 7 39 4 81 81 SSE 12 19 29.85 1011 10 16 N/A
2:15 pm 14:15 Cloudy 46 8 39 4 76 76 SSE 14 22 29.82 1010 10 16 N/A
2:35 pm 14:35 Cloudy 48 9 41 5 76 76 S 13 20 29.81 1010 10 16 N/A
2:55 pm 14:55 Cloudy 46 8 45 7 93 93 S 14 22 29.81 1009 4 6 N/A
3:15 pm 15:15 Cloudy 46 8 46 8 100 100 S 12 19 29.80 1009 7 11 N/A
3:35 pm 15:35 Cloudy 48 9 46 8 94 94 S 12 19 29.78 1009 10 16 N/A
3:55 pm 15:55 Cloudy 48 9 46 8 94 94 SSE 12 19 29.77 1008 10 16 N/A
4:15 pm 16:15 Cloudy 48 9 46 8 94 94 SSE 14 22 29.76 1008 10 16 N/A
4:35 pm 16:35 Cloudy 50 10 46 8 88 88 S 14 22 29.75 1007 10 16 N/A
4:55 pm 16:55 Cloudy 50 10 48 9 94 94 S 14 22 29.75 1007 7 11 N/A
5:15 pm 17:15 Cloudy 50 10 50 10 100 100 S 13 20 29.74 1007 10 16 N/A
5:35 pm 17:35 Cloudy 50 10 50 10 100 100 S 13 20 29.74 1007 10 16 N/A
5:55 pm 17:55 Cloudy 52 11 52 11 100 100 S 14 22 29.73 1007 10 16 N/A
6:15 pm 18:15 Cloudy 52 11 52 11 100 100 S 14 22 29.72 1006 10 16 N/A
6:35 pm 18:35 Cloudy 54 12 54 12 100 100 S 17 28 29.70 1006 10 16 N/A
6:55 pm 18:55 Cloudy 54 12 54 12 100 100 S 14 22 29.70 1006 10 16 N/A
7:15 pm 19:15 Cloudy 55 13 55 13 100 100 S 18 30 29.70 1006 10 16 N/A
7:35 pm 19:35 Cloudy 54 12 54 12 100 100 S 16 26 29.70 1006 10 16 N/A
7:55 pm 19:55 Cloudy 54 12 54 12 100 100 S 15 24 29.69 1006 10 16 N/A
8:15 pm 20:15 Cloudy 55 13 55 13 100 100 S 22 35 29.70 1006 10 16 N/A
8:35 pm 20:35 Cloudy 55 13 55 13 100 100 S 12 19 29.71 1006 10 16 N/A
8:55 pm 20:55 Cloudy 55 13 55 13 100 100 SSW 9 15 29.72 1006 10 16 N/A
9:15 pm 21:15 Cloudy 57 14 57 14 100 100 SSW 10 17 29.72 1006 10 16 N/A
9:35 pm 21:35 Cloudy 57 14 57 14 100 100 SSW 10 17 29.72 1006 10 16 N/A
9:55 pm 21:55 Cloudy 59 15 59 15 100 100 SW 10 17 29.71 1006 10 16 N/A
10:15 pm 22:15 Cloudy 59 15 59 15 100 100 SW 12 19 29.70 1006 10 16 N/A
10:35 pm 22:35 Cloudy 59 15 59 15 100 100 W 6 9 29.70 1006 7 11 N/A
10:55 pm 22:55 Cloudy 57 14 57 14 100 100 S 7 11 29.70 1006 10 16 N/A
11:15 pm 23:15 Cloudy 59 15 59 15 100 100 SW 15 24 29.66 1005 7 11 N/A
11:35 pm 23:35 Cloudy 59 15 59 15 100 100 SSW 9 15 29.64 1004 10 16 N/A
11:55 pm 23:55 Cloudy 59 15 59 15 100 100 S 6 9 29.63 1004 10 16 N/A

Powered by AerisWeather